Stations météo

réclame
Mon MeteoGroup
Cherbourg, France (7024): Température de l'air & dewpoint: 18.09.2019 11:00:00 - 24.09.2019 11:00:00 (CEST)Cherbourg, France (7024): Température de l'air 5cm: 18.09.2019 11:00:00 - 24.09.2019 11:00:00 (CEST)Cherbourg, France (7024): Température de l'air -20cm & Température de l'air -100cm: 18.09.2019 11:00:00 - 24.09.2019 11:00:00 (CEST)Cherbourg, France (7024): Vitesse du vent & gusts: 18.09.2019 11:00:00 - 24.09.2019 11:00:00 (CEST)Cherbourg, France (7024): Direction du vent: 18.09.2019 11:00:00 - 24.09.2019 11:00:00 (CEST)Cherbourg, France (7024): reduced air pressure: 18.09.2019 11:00:00 - 24.09.2019 11:00:00 (CEST)Cherbourg, France (7024): visibility: 18.09.2019 11:00:00 - 24.09.2019 11:00:00 (CEST)Cherbourg, France (7024): Ensoleillement: 18.09.2019 11:00:00 - 24.09.2019 11:00:00 (CEST)Cherbourg, France (7024): Quantités de précipitations: 18.09.2019 11:00:00 - 24.09.2019 11:00:00 (CEST)
Date & Time tt [°C] td [°C] tt 5cm [°C] tt -20cm [°C] tt -100cm [°C] ff [km/h] ff [knt] fx [km/h] fx [knt] dd ppp [hPa] vv [km] sd [min] rr [mm]
24.09.2019 11:00:00 - - - - - - - - - - - - - -
24.09.2019 10:00:00 16,2 15,6 16,0 15,4 15,3 20 11 42 23 S 1002,3 15 0 0,4
24.09.2019 09:00:00 16,1 15,6 15,6 15,4 15,3 23 12 36 19 SSW 1002,7 60 0 0,0
24.09.2019 08:00:00 16,1 15,5 15,7 15,4 15,3 27 14 56 31 SSW 1002,5 19 0 1,2
24.09.2019 07:00:00 15,9 15,4 15,6 15,5 15,3 26 14 45 25 S 1002,7 8 0 4,7
24.09.2019 06:00:00 16,0 15,5 15,8 15,4 15,3 25 13 45 24 S 1003,7 58 0 0,6
24.09.2019 05:00:00 16,0 15,5 15,8 15,4 15,3 23 13 46 25 S 1004,9 19 0 0,0
24.09.2019 04:00:00 16,0 15,7 15,7 15,4 15,3 22 12 44 24 S 1006,1 7 0 1,0
24.09.2019 03:00:00 15,9 15,4 15,5 15,4 15,3 24 13 41 22 S 1007,2 2,5 0 0,6
24.09.2019 02:00:00 15,8 15,3 15,5 15,4 15,3 26 14 45 24 S 1007,4 4,9 0 0,2
24.09.2019 01:00:00 15,8 15,2 15,4 15,4 15,3 28 15 48 26 S 1008,5 46 0 0,2
24.09.2019 00:00:00 15,7 15,1 15,2 15,4 15,3 28 15 48 26 SSW 1009,3 19 0 0,0
23.09.2019 23:00:00 15,4 14,9 15,1 15,4 15,3 23 12 46 25 S 1009,8 4,2 0 0,4
23.09.2019 22:00:00 15,5 14,9 14,9 15,4 15,3 27 15 58 32 S 1010,1 7 0 1,2
23.09.2019 21:00:00 15,2 14,7 14,7 15,4 15,3 31 17 49 27 S 1010,4 2,1 0 1,0
23.09.2019 20:00:00 15,0 14,5 14,6 15,4 15,3 24 13 50 27 S 1010,3 2,5 0 1,5
23.09.2019 19:00:00 14,9 14,4 14,5 15,4 15,3 35 19 53 29 S 1010,2 2,0 7 2,4
23.09.2019 18:00:00 14,8 14,2 14,8 15,4 15,3 31 17 50 27 S 1010,4 2,8 0 1,0
23.09.2019 17:00:00 15,5 14,5 15,1 15,4 15,3 24 13 41 22 S 1011,0 20 0 0,2
23.09.2019 16:00:00 15,3 14,0 15,1 15,4 15,3 25 13 44 24 S 1011,9 9 0 0,8
23.09.2019 15:00:00 15,7 14,2 14,8 15,3 15,3 23 13 44 24 S 1012,2 20 0 0,6
23.09.2019 14:00:00 16,6 13,3 17,2 15,3 15,3 23 12 41 22 S 1012,3 46 0 0,0
23.09.2019 13:00:00 16,5 14,0 17,6 15,3 15,3 23 13 37 20 S 1012,5 45 5 0,0
23.09.2019 12:00:00 15,9 14,4 15,2 15,3 15,3 22 12 36 20 S 1013,0 19 0 0,2
23.09.2019 11:00:00 14,9 13,9 14,5 15,3 15,3 17 9 32 17 SSW 1013,4 6 0 1,2
23.09.2019 10:00:00 15,2 13,7 13,9 15,3 15,3 17 9 31 17 S 1013,1 19 7 0,0
23.09.2019 09:00:00 13,5 12,9 12,1 15,3 15,3 15 8 23 12 S 1013,0 16 0 0,0
23.09.2019 08:00:00 12,7 12,1 11,6 15,4 15,3 9 5 16 9 S 1012,8 16 0 0,0
23.09.2019 07:00:00 12,4 11,5 11,1 15,4 15,3 12 6 21 12 S 1012,7 19 0 0,0
23.09.2019 06:00:00 12,2 11,1 11,0 15,5 15,3 14 8 22 12 SW 1012,6 19 0 0,0
23.09.2019 05:00:00 12,6 11,3 11,6 15,5 15,3 14 8 26 14 SW 1012,2 19 0 0,0
23.09.2019 04:00:00 13,5 12,1 11,8 15,6 15,3 19 11 27 15 WSW 1011,5 20 0 0,0
23.09.2019 03:00:00 13,1 11,5 12,0 15,6 15,3 21 11 33 18 WSW 1011,2 41 0 0,0
23.09.2019 02:00:00 13,2 11,9 12,0 15,7 15,3 19 10 29 16 WSW 1010,7 20 0 0,2
23.09.2019 01:00:00 13,7 12,6 12,8 15,7 15,3 23 12 34 19 WSW 1010,0 7 0 0,0
23.09.2019 00:00:00 13,6 12,5 12,7 15,8 15,3 19 11 35 19 WSW 1009,1 20 0 0,4
22.09.2019 23:00:00 13,9 12,9 12,7 15,8 15,3 17 9 28 15 SW 1008,4 5 0 0,4
22.09.2019 22:00:00 13,2 12,3 11,3 15,9 15,3 16 9 24 13 SSW 1007,7 20 0 0,0
22.09.2019 21:00:00 13,3 11,7 12,1 15,9 15,3 17 9 37 20 WSW 1007,2 59 0 0,0
22.09.2019 20:00:00 13,5 11,9 12,5 15,9 15,3 19 10 50 27 SW 1006,7 60 0 0,6
22.09.2019 19:00:00 16,8 10,6 16,3 15,9 15,3 20 11 32 17 SSW 1005,9 60 42 0,0
22.09.2019 18:00:00 18,2 11,0 18,9 15,9 15,3 25 13 61 33 SW 1005,6 19 54 0,0
22.09.2019 17:00:00 19,2 11,0 19,3 15,8 15,3 32 17 53 29 SW 1005,1 54 34 0,0
22.09.2019 16:00:00 18,8 12,3 19,6 15,8 15,3 28 15 51 27 SSW 1005,3 60 28 0,0
22.09.2019 15:00:00 18,5 13,6 18,9 15,8 15,3 29 16 49 27 SSW 1004,9 54 22 0,0
22.09.2019 14:00:00 17,3 13,8 15,9 15,8 15,3 21 12 40 21 SSW 1004,9 49 2 0,2
22.09.2019 13:00:00 17,0 14,3 17,0 15,8 15,3 25 13 39 21 S 1004,8 20 2 0,0
22.09.2019 12:00:00 16,4 14,6 17,1 15,7 15,3 21 11 36 19 S 1004,7 60 5 0,0
22.09.2019 11:00:00 16,1 15,1 15,0 15,8 15,3 17 9 31 17 SSW 1004,6 58 7 0,2
22.09.2019 10:00:00 15,2 14,6 14,5 15,8 15,3 8 4 16 8 SSE 1003,8 60 0 1,8
22.09.2019 09:00:00 15,1 14,3 14,6 15,8 15,3 9 5 36 19 WSW 1003,6 3,5 0 7,1
22.09.2019 08:00:00 16,6 15,1 15,9 15,9 15,3 8 4 11 6 SSW 1002,9 2,0 0 0,8
22.09.2019 07:00:00 16,8 14,4 15,8 15,9 15,3 8 4 17 9 SSE 1002,6 39 0 0,0
22.09.2019 06:00:00 17,4 14,3 16,4 15,9 15,3 12 6 25 14 S 1002,9 44 0 0,0
22.09.2019 05:00:00 18,2 14,3 17,0 15,9 15,3 12 7 26 14 SSE 1003,1 48 0 0,0
22.09.2019 04:00:00 19,1 14,6 18,1 15,9 15,3 13 7 22 12 SSE 1003,5 46 0 0,0
22.09.2019 03:00:00 19,5 15,2 18,2 15,9 15,3 11 6 19 10 SSE 1004,0 41 0 0,0
22.09.2019 02:00:00 19,5 15,2 18,2 15,9 15,3 11 6 22 12 S 1004,2 43 0 0,0
22.09.2019 01:00:00 19,8 15,2 18,2 15,9 15,3 10 5 15 8 S 1004,9 18 0 0,0
22.09.2019 00:00:00 19,5 15,2 18,1 15,9 15,3 8 4 18 10 SSE 1005,2 37 0 0,0
21.09.2019 23:00:00 20,7 15,5 19,6 15,9 15,3 11 6 18 10 SE 1005,5 40 0 0,0
21.09.2019 22:00:00 21,3 15,4 19,1 15,9 15,3 14 8 20 11 SE 1005,9 43 0 0,0
21.09.2019 21:00:00 20,2 15,4 19,1 15,9 15,3 8 5 12 6 SE 1006,1 37 0 0,0
21.09.2019 20:00:00 21,2 15,7 20,5 15,8 15,3 8 5 13 7 SE 1006,2 19 4 0,0
21.09.2019 19:00:00 21,5 16,2 21,3 15,7 15,3 7 4 15 8 SE 1006,6 46 0 0,0
21.09.2019 18:00:00 21,8 15,9 22,0 15,6 15,3 8 4 20 11 ESE 1006,9 20 2 0,0
21.09.2019 17:00:00 22,5 15,3 24,0 15,5 15,3 12 6 25 13 ESE 1007,4 53 8 0,0
21.09.2019 16:00:00 23,2 14,5 24,8 15,4 15,3 17 9 28 15 SE 1007,8 47 45 0,0
21.09.2019 15:00:00 24,4 14,2 28,9 15,3 15,3 18 10 32 17 SE 1008,3 19 58 0,0
21.09.2019 14:00:00 23,4 13,6 28,1 15,2 15,4 20 11 29 16 ESE 1008,9 35 60 0,0
21.09.2019 13:00:00 23,2 13,4 26,6 15,1 15,3 16 9 31 17 SE 1009,4 20 60 0,0
21.09.2019 12:00:00 21,8 12,9 24,4 15,1 15,3 18 10 29 15 SSE 1010,2 19 60 0,0
21.09.2019 11:00:00 20,5 12,5 20,0 15,1 15,3 17 9 29 16 SSE 1010,6 40 60 0,0
21.09.2019 10:00:00 18,0 10,8 16,8 15,1 15,3 19 10 27 15 SSE 1010,9 46 60 0,0
21.09.2019 09:00:00 15,8 9,5 13,7 15,1 15,3 16 9 27 15 SSE 1011,2 47 17 0,0
21.09.2019 08:00:00 14,3 8,5 13,5 15,2 15,3 18 10 29 15 SSE 1011,5 60 0 0,0
21.09.2019 07:00:00 14,3 8,0 13,5 15,2 15,4 18 10 29 15 SE 1011,6 60 0 0,0
21.09.2019 06:00:00 14,6 7,2 13,4 15,3 15,4 17 9 28 15 SE 1011,9 60 0 0,0
21.09.2019 05:00:00 14,7 7,0 13,9 15,3 15,4 17 9 30 16 SE 1012,4 60 0 0,0
21.09.2019 04:00:00 14,9 6,2 13,9 15,3 15,4 17 9 31 17 SE 1013,0 60 0 0,0
21.09.2019 03:00:00 15,4 5,9 14,5 15,3 15,4 23 12 35 19 SE 1013,7 60 0 0,0
21.09.2019 02:00:00 16,0 7,2 15,1 15,4 15,4 23 13 37 20 SE 1014,4 60 0 0,0
21.09.2019 01:00:00 16,3 8,0 15,5 15,4 15,4 22 12 40 22 SE 1015,0 60 0 0,0
21.09.2019 00:00:00 17,1 7,2 16,2 15,5 15,4 26 14 45 24 ESE 1015,4 60 0 0,0
20.09.2019 23:00:00 17,7 6,5 16,4 15,5 15,4 27 15 44 24 ESE 1016,0 60 0 0,0
20.09.2019 22:00:00 17,8 6,6 15,6 15,5 15,4 26 14 42 23 ESE 1016,2 60 0 0,0
20.09.2019 21:00:00 16,8 10,9 15,2 15,5 15,4 25 13 45 25 ESE 1016,8 55 0 0,0
20.09.2019 20:00:00 16,8 10,6 15,9 15,4 15,4 27 15 46 25 E 1017,0 53 33 0,0
20.09.2019 19:00:00 17,7 9,8 19,1 15,4 15,4 33 18 56 30 E 1017,3 20 60 0,0
20.09.2019 18:00:00 18,3 9,6 21,6 15,3 15,4 31 17 51 28 E 1018,0 20 60 0,0
20.09.2019 17:00:00 18,4 9,2 23,2 15,3 15,4 35 19 52 28 E 1018,8 33 60 0,0
20.09.2019 16:00:00 18,4 9,7 23,5 15,2 15,4 33 18 54 29 E 1019,8 20 60 0,0
20.09.2019 15:00:00 18,6 7,7 22,7 15,2 15,4 33 18 62 33 E 1020,7 60 60 0,0
20.09.2019 14:00:00 18,1 5,3 21,4 15,1 15,4 40 22 59 32 E 1021,4 20 60 0,0
20.09.2019 13:00:00 17,0 6,2 20,3 15,1 15,4 39 21 60 32 E 1022,2 34 60 0,0
20.09.2019 12:00:00 17,1 5,4 19,0 15,1 15,4 35 19 56 30 ESE 1023,0 39 60 0,0
20.09.2019 11:00:00 16,4 7,1 17,1 15,2 15,4 33 18 54 29 E 1023,5 20 60 0,0
20.09.2019 10:00:00 15,3 7,6 15,3 15,2 15,4 27 15 45 25 ESE 1024,1 55 60 0,0
20.09.2019 09:00:00 13,9 7,6 11,4 15,2 15,4 21 11 33 18 ESE 1024,4 60 34 0,0
20.09.2019 08:00:00 12,4 7,7 10,7 15,3 15,4 18 10 27 15 ESE 1024,6 60 0 0,0
20.09.2019 07:00:00 12,4 8,1 10,9 15,3 15,4 16 9 30 16 E 1024,8 60 0 0,0
20.09.2019 06:00:00 12,7 8,2 11,5 15,3 15,4 22 12 39 21 ESE 1025,1 60 0 0,0
20.09.2019 05:00:00 13,3 7,9 12,0 15,4 15,4 24 13 40 21 E 1025,7 60 0 0,0
20.09.2019 04:00:00 13,6 8,2 12,5 15,5 15,4 24 13 40 22 ESE 1026,3 60 0 0,0
20.09.2019 03:00:00 14,0 8,4 12,8 15,5 15,4 26 14 44 24 E 1026,7 59 0 0,0
20.09.2019 02:00:00 14,4 8,8 13,3 15,5 15,4 27 15 42 23 E 1027,1 47 0 0,0
20.09.2019 01:00:00 14,9 9,5 13,2 15,6 15,4 26 14 37 20 E 1027,5 10 0 0,0
20.09.2019 00:00:00 14,7 12,2 13,2 15,6 15,4 21 11 40 22 E 1028,0 20 0 0,0
19.09.2019 23:00:00 14,5 11,6 12,9 15,6 15,4 24 13 42 23 E 1028,2 40 0 0,0
19.09.2019 22:00:00 14,4 11,2 12,9 15,6 15,4 21 11 44 24 E 1028,2 43 0 0,0
19.09.2019 21:00:00 14,2 10,8 12,8 15,6 15,4 21 11 40 22 E 1028,1 51 0 0,0
19.09.2019 20:00:00 14,5 10,7 13,7 15,6 15,4 24 13 45 24 ENE 1027,9 54 36 0,0
19.09.2019 19:00:00 15,4 10,8 18,0 15,6 15,4 26 14 49 26 ENE 1028,2 42 60 0,0
19.09.2019 18:00:00 16,1 10,6 21,7 15,5 15,5 26 14 49 26 ENE 1028,4 48 60 0,0
19.09.2019 17:00:00 16,6 10,2 24,2 15,4 15,4 30 16 49 26 ENE 1028,6 46 60 0,0
19.09.2019 16:00:00 - - - - - - - - - - - - - -
19.09.2019 15:00:00 17,5 10,4 21,3 15,3 15,4 24 13 47 26 E 1029,4 20 53 0,0
19.09.2019 14:00:00 16,8 9,7 18,8 15,2 15,5 30 16 52 28 E 1030,0 42 44 0,0
19.09.2019 13:00:00 16,9 9,1 21,0 15,2 15,4 28 15 46 25 E 1030,3 47 60 0,0
19.09.2019 12:00:00 16,0 8,5 16,0 15,2 15,5 29 16 49 26 E 1030,6 57 45 0,0
19.09.2019 11:00:00 14,8 8,9 15,9 15,2 15,4 29 16 50 27 E 1030,7 43 21 0,0
19.09.2019 10:00:00 15,4 9,5 13,8 15,3 15,4 24 13 41 22 E 1030,2 20 30 0,0
19.09.2019 09:00:00 13,7 9,1 12,4 15,3 15,5 16 9 29 15 E 1029,9 55 0 0,0
19.09.2019 08:00:00 13,3 9,4 11,3 15,3 15,4 14 8 24 13 E 1029,5 57 0 0,0
19.09.2019 07:00:00 12,6 9,1 9,8 15,4 15,5 13 7 23 12 E 1029,2 53 0 0,0
19.09.2019 06:00:00 12,5 8,6 10,7 15,5 15,5 13 7 26 14 E 1029,1 52 0 0,0
19.09.2019 05:00:00 12,7 8,6 10,7 15,5 15,5 14 8 29 15 E 1029,2 54 0 0,0
19.09.2019 04:00:00 13,2 9,3 11,3 15,6 15,5 17 9 34 19 E 1029,3 48 0 0,0
19.09.2019 03:00:00 13,4 9,6 11,6 15,6 15,5 19 10 33 18 E 1029,5 45 0 0,0
19.09.2019 02:00:00 13,5 9,5 11,5 15,7 15,5 17 9 30 16 E 1029,6 44 0 0,0
19.09.2019 01:00:00 13,6 9,2 11,5 15,7 15,5 19 11 33 18 ENE 1029,5 48 0 0,0
19.09.2019 00:00:00 13,6 8,2 11,4 15,8 15,5 19 11 35 19 E 1029,3 57 0 0,0
18.09.2019 23:00:00 13,5 9,2 11,4 15,8 15,5 18 10 37 20 ENE 1029,1 50 0 0,0
18.09.2019 22:00:00 13,8 8,8 11,0 15,9 15,5 20 11 35 19 ENE 1028,8 54 0 0,0
18.09.2019 21:00:00 13,7 8,3 10,9 15,9 15,5 18 10 29 16 ENE 1028,5 59 0 0,0
18.09.2019 20:00:00 13,7 8,1 12,5 15,9 15,5 16 9 38 21 ENE 1027,9 59 38 0,0
18.09.2019 19:00:00 14,8 8,7 18,3 15,8 15,5 23 12 39 21 ENE 1028,1 20 54 0,0
18.09.2019 18:00:00 15,0 8,9 17,9 15,7 15,5 24 13 40 22 ENE 1028,1 39 36 0,0
18.09.2019 17:00:00 16,2 10,1 21,0 15,7 15,5 23 13 44 24 ENE 1028,0 36 34 0,0
18.09.2019 16:00:00 16,3 10,2 22,1 15,6 15,5 25 14 40 22 ENE 1028,1 18 36 0,0
18.09.2019 15:00:00 16,9 10,3 20,5 15,5 15,5 24 13 40 22 ENE 1028,1 56 35 0,0
18.09.2019 14:00:00 17,4 9,3 23,1 15,5 15,5 24 13 41 22 ENE 1028,1 19 47 0,0
18.09.2019 13:00:00 17,2 9,1 20,1 15,5 15,5 21 11 45 24 ENE 1028,4 19 39 0,0
18.09.2019 12:00:00 16,3 8,0 16,1 15,5 15,5 27 15 43 23 E 1028,5 20 27 0,0
18.09.2019 11:00:00 15,3 9,4 15,9 15,5 15,5 23 12 37 20 E 1028,3 19 25 0,0

tt = Température de l'air
td = dewpoint
tt 5cm = Température de l'air 5cm
tt -20cm = Température de l'air -20cm
tt -100cm = Température de l'air -100cm
ff = Vitesse du vent
fx = gusts
dd = Direction du vent
ppp = reduced air pressure
vv = visibility
sd = Ensoleillement
rr = Quantités de précipitations

stations d'obs. à proximité